This is the latest recevied weather packets stored in our database for station/object KK7KHO. If no packets are shown the sender has not sent any weather packets the latest 10 day(s).
| Time | Temp. | Humidity | Pressure | Rain* | Wind** | Luminosity | Snow |
|---|---|---|---|---|---|---|---|
| 1777824441 | 17.78° C | 76% | 1013.9 hPa | 0 mm | - | 346 W/m² | - |
| 1777824136 | 18.33° C | 77% | 1014.1 hPa | 0 mm | - | 332 W/m² | - |
| 1777823833 | 16.67° C | 81% | 1014.1 hPa | 0 mm | - | 317 W/m² | - |
| 1777823531 | 16.67° C | 81% | 1014.1 hPa | 0 mm | - | 304 W/m² | - |
| 1777823228 | 15.56° C | 83% | 1013.9 hPa | 0 mm | - | 291 W/m² | - |
| 1777822925 | 16.11° C | 83% | 1014.1 hPa | 0 mm | - | 276 W/m² | - |
| 1777822623 | 15.56° C | 83% | 1014.1 hPa | 0 mm | - | 263 W/m² | - |
| 1777822320 | 15.56° C | 82% | 1013.9 hPa | 0 mm | - | 249 W/m² | - |
| 1777822018 | 15.56° C | 84% | 1014.1 hPa | 0 mm | - | 237 W/m² | - |
| 1777821715 | 15.56° C | 84% | 1014.1 hPa | 0 mm | - | 223 W/m² | - |
| 1777821413 | 15.56° C | 84% | 1014.3 hPa | 0 mm | - | 210 W/m² | - |
| 1777821109 | 15° C | 84% | 1014 hPa | 0 mm | - | 198 W/m² | - |
| 1777820807 | 15° C | 86% | 1014.3 hPa | 0 mm | - | 185 W/m² | - |
| 1777820503 | 15° C | 85% | 1014.2 hPa | 0 mm | - | 172 W/m² | - |
| 1777820200 | 15° C | 85% | 1014.1 hPa | 0 mm | - | 157 W/m² | - |
| 1777819897 | 14.44° C | 85% | 1014.2 hPa | 0 mm | - | 149 W/m² | - |
| 1777819594 | 14.44° C | 87% | 1014.4 hPa | 0 mm | - | 137 W/m² | - |
| 1777819292 | 13.89° C | 88% | 1014.3 hPa | 0 mm | - | 126 W/m² | - |
| 1777818988 | 13.33° C | 89% | 1014.4 hPa | 0 mm | - | 115 W/m² | - |
| 1777818685 | 13.33° C | 89% | 1014.4 hPa | 0 mm | - | 105 W/m² | - |
| 1777818382 | 12.78° C | 89% | 1014.4 hPa | 0 mm | - | 95 W/m² | - |
| 1777818079 | 12.78° C | 89% | 1014 hPa | 0 mm | - | 86 W/m² | - |
| 1777817775 | 12.78° C | 90% | 1014.2 hPa | 0 mm | - | 79 W/m² | - |
| 1777817473 | 12.22° C | 91% | 1014.2 hPa | 0 mm | - | 69 W/m² | - |
| 1777817169 | 11.67° C | 92% | 1014.1 hPa | 0 mm | - | 63 W/m² | - |
* Rain latest hour (hover to see other rain measurements)
** Current wind speed in m/s (hover to see current wind gust speed)